星链-30521 (STARLINK-30521 )

导读

STARLINK-30521是美国太空探索技术公司SpaceX星链星座中的一颗卫星,于2023年9月30日发射入轨,属于Starlink Group批次任务。星链卫星旨在构建全球卫星互联网星座,为全球偏远地区、海洋等信号覆盖薄弱区域提供高速低延迟的宽带互联网服务。

基本信息
目录编号:
57966
目录名称:
STARLINK-30521
国际标识:
2023-151C
轨道中心:
EARTH
卫星名称:
星链-30521
卫星全名:
星链-30521 (STARLINK-30521 )
卫星状态:
在轨 (已飞行1077 天)
发射日期:
2023-09-30 UTC
国别 :
美国 (US)
星等 :
--
该卫星已列入 空间交会检测服务 Space Conjunction Data Service (SCDS) ,当前飞行风险评估等级: 无高风险
轨道信息
数据来源 国际轨道数据
星历时间: 2026-09-09T23:39:15+0800
1天前
查看轨道信息
半长轴: 6861.221km
偏心率: 0.0000973
轨道倾角: 43.002°
近地点辐角 258.110°
升交点赤经 16.868°
平近点角 101.965°
近地点: 482.416km
远地点: 483.752km
周期: 94.267分钟
每日圈数: 15.275686
详细信息
固有亮度:
5
最大亮度:
0.3
卫星平台:
Starlink v2.0 mini
覆盖范围:
全球
运营商:
太空探索技术公司
运营商所在国:
美国
制造商(研发单位):
太空探索技术公司
制造商所在国:
美国
使用方式:
暂无
卫星简介
星链(Starlink)计划是由太空探索技术公司(SpaceX)提出的一个巨型低轨卫星互联网星座项目,计划在2019年至2024年间在太空搭建由约1.2万颗卫星组成的“星链”网络,其中1584颗将部署在地球上空550千米处的近地轨道,并从2020年开始工作。该卫星仍在工作。
2D轨道图
3D轨道图
轨道高度分析图
轨道倾角分析图
轨道综合分析图
查看轨道综合分析图
交会数据列表
事件ID 空间交会对象 最接近时刻(TCA) 交会距离 交会风险概率(CRP) 交会风险指数(CRI) 操作
CDM_260913-181005-796606-365721
2026-09-13T
18:10:23+0000
1.162 km
极远距离
4.971109E-6 低风险 0.49
CDM_260912-160803-947505-796622
2026-09-12T
16:08:09+0000
2.318 km
极远距离
1.845902E-6 低风险 0.4
CDM_260912-093905-796606-471021
2026-09-12T
09:39:21+0000
2.798 km
极远距离
1.331487E-6 低风险 0.37
与全量物体交会距离演化趋势
与全量物体交会风险概率演化趋势